Дехканабад

Узбекистан     40°31′51″N   69°01′58″E
темп.,
°C
ветер,
м/с
пор.,
м/с
влажн.,
%
обл.,
%
осадки,
мм/ч
давл.,
гПа
погр.,
м
27 февраля, сб
сб2723:00−3св1156100 0.0 103041
02:00−3ссз1155100 0.0 102844
05:00−3с1155100 0.0 102851
08:00−1в1245100 0.0 1028148
11:00+2юв4534100 0.1 1029358
14:00+6юв3232100 0.0 1028983
17:00+6юв223178 0.0 10281132
20:00+3вюв235120 0.0 103136
28 февраля, вс
вс2823:00+2юв234310 0.0 103073
02:00+1юв49390 0.0 1028238
05:00+1юв37430 0.0 1027171
08:00+1в23430 0.0 1025119
11:00+8вюв59280 0.0 1023785
14:00+11вюв57240 0.0 1020913
17:00+11вюв46250 0.0 1019825
20:00+7вюв23400 0.0 102156
1 марта, пн
пн123:00+5юв224232 0.0 102161
02:00+5вюв1246100 0.0 102140
05:00+4юв3447100 0.0 102185
08:00+5юв4645100 0.0 1021127
11:00+12юв572568 0.0 1020516
14:00+16юв57180 0.0 1019663
17:00+15юв68210 0.0 1018433
20:00+11юв611270 0.0 1021226
2 марта, вт
вт223:00+9ююв510300 0.0 1021190
02:00+9ююв61129100 0.0 1021202
05:00+9ююв51031100 0.0 1021180
08:00+9юв3733100 0.0 1022156
11:00+13вюв2325100 0.0 1021472
14:00+16всв2222100 0.0 1020725
17:00+16с1124100 0.0 1020557
20:00+13ссв3438100 0.0 102288
3 марта, ср
ср323:00+12сз1141100 0.0 102222
02:00+11ссв2243100 0.0 102134
05:00+10с3555100 0.0 1021130
08:00+9св4578100 0.6 1021208
11:00+11ссв3369100 0.6 1020481
14:00+13ссз3459100 0.0 1019897
17:00+9с5882100 0.8 1019444
20:00+9св377896 0.1 1019275